Regional Weather Roundup
Issued by NWS

Home | Current Version | Previous Version | Graphics & Text | Print | Product List | Glossary On
Versions: 1 2 3 4 5 6 7 8 9 10 11 12 13 14 15 16 17 18 19 20 21 22 23 24 25 26 27 28 29 30 31 32 33 34 35 36 37 38 39 40 41 42 43 44 45 46 47 48 49 50
918
ASUS45 KCYS 260810
RWRWY

WYOMING REGIONAL WEATHER ROUNDUP
NATIONAL WEATHER SERVICE CHEYENNE WY
200 AM MDT SAT MAY 26 2018

NOTE:  "FAIR" INDICATES FEW OR NO CLOUDS BELOW 12,000 FEET
WITH NO SIGNIFICANT WEATHER AND/OR OBSTRUCTIONS TO VISIBILITY.

WYZ001-260900-
YELLOWSTONE NATIONAL PARK

CITY           SKY/WX    TMP DP  RH WIND       PRES   REMARKS
LK YELLOWSTONE   N/A     35  32  88 CALM      30.07F
W YELLOWSTONE  NOT AVBL

$$
WYZ002>013-054>058-071-098>099-260900-
NORTHERN WYOMING

CITY           SKY/WX    TMP DP  RH WIND       PRES   REMARKS
JACKSON        LGT RAIN  47  42  83 N12       29.98S
CODY           FAIR      57  48  72 CALM      29.90F
GREYBULL       FAIR      61  50  67 VRB3      29.81F
WORLAND        FAIR      57  49  74 CALM      29.82F
SHERIDAN       FAIR      55  51  86 CALM      29.86F
BUFFALO        FAIR      61  47  59 W3        29.93F
GILLETTE       FAIR      56  51  84 S6        29.89F
NEWCASTLE      FAIR      66  46  48 E9        29.91F

$$
WYZ014>020-022>026-101>103-260900-
CENTRAL WYOMING

CITY           SKY/WX    TMP DP  RH WIND       PRES   REMARKS
BIG PINEY      FAIR      44  38  79 N8        30.00S
PINEDALE       FAIR      43  36  75 CALM      30.01S
DUBOIS         FAIR      46  36  66 NW8       30.02F
LANDER         FAIR      57  42  57 W10       29.89F
RIVERTON       FAIR      55  44  66 CALM      29.90F
CASPER         FAIR      57  49  74 E5        29.92F
DOUGLAS          N/A     58  52  80 E9        29.93F

$$
WYZ021-027>030-104>119-260900-
SOUTHERN WYOMING

CITY           SKY/WX    TMP DP  RH WIND       PRES   REMARKS
EVANSTON       FAIR      59  32  36 S5        30.01F
FORT BRIDGER   FAIR      57  18  21 W9        30.03
ROCK SPRINGS   FAIR      59  12  15 S9        30.00F
DIXON          FAIR      42  29  61 SE3       30.06S
RAWLINS        FAIR      58  18  21 SW6       30.02F
SARATOGA       FAIR      52  28  40 SE13      30.06F
LARAMIE        FAIR      52  34  50 S13       30.07F
CHEYENNE       FAIR      54  45  71 W3        30.01F
TORRINGTON     FAIR      56  53  90 E6        29.91F
PINE BLUFFS    FAIR      55  45  67 CALM      29.98F

$$




USA.gov is the U.S. government's official web portal to all federal, state and local government web resources and services.